Weather History for Waco, TX

Change the Weather History Date:

Tuesday, January 29, 2013

  Actual Average Record
Temperature  
Mean Temperature 66 °F 48 °F  
Max Temperature 81 °F 59 °F 86 °F (1911)
Min Temperature 50 °F 37 °F 13 °F (1966)
Degree Days  
Heating Degree Days 0 17  
Month to date heating degree days 456 522  
Since 1 July heating degree days 1197 1374  
Cooling Degree Days 1 0  
Month to date cooling degree days 11 0  
Year to date cooling degree days 11 0  
Growing Degree Days 16 (Base 50)    
Moisture  
Dew Point 56 °F    
Average Humidity 62    
Maximum Humidity 84    
Minimum Humidity 40    
Precipitation  
Precipitation 0.05 in 0.09 in 1.74 in (1999)
Month to date precipitation 5.05 1.97  
Year to date precipitation 5.05 1.97  
Snow  
Snow 0.00 in 0.00 in 1.00 in (1948)
Month to date snowfall T 0.3  
Since 1 July snowfall T 0.4  
Snow Depth 0.00 in    
Sea Level Pressure  
Sea Level Pressure 29.68 in    
Wind  
Wind Speed 19 mph (SSW)    
Max Wind Speed 36 mph    
Max Gust Speed 46 mph    
Visibility 9 miles    
Events Rain    
T = Trace of Precipitation, MM = Missing Value Source: NWS Daily Summary

Daily Weather History Graph

Daily Weather History Graph

Search for Another Location

Airport:

Trip Planner

Search our weather history database for the weather conditions in past years. The results will help you decide how hot, cold, wet, or windy it might be!

Date:

Astronomy

Jan. 29, 2013 Rise Set
Actual Time 7:23 AM CST 6:01 PM CST
Civil Twilight 6:57 AM CST 6:26 PM CST
Nautical Twilight 6:28 AM CST 6:55 PM CST
Astronomical Twilight 5:59 AM CST 7:24 PM CST
Moon 8:43 PM CST (1/29) 8:33 AM CST (1/29)
Length of Visible Light 11h 28m
Length of Day
10h 37m
Waning Gibbous, 93% of the Moon is Illuminated
Jan 29
Waning Gibbous
Feb 3
Last Quarter
Feb 10
New
Feb 17
First Quarter
Feb 25
Full

Hourly Weather History & Observations

Time (CST) Temp. Heat Index Dew Point Humidity Pressure Visibility Wind Dir Wind Speed Gust Speed Precip Events Conditions
12:51 AM 70.0 °F - 64.0 °F 81% 29.86 in 9.0 mi South 11.5 mph - N/A   Overcast
1:51 AM 70.0 °F - 64.0 °F 81% 29.81 in 8.0 mi SSE 19.6 mph - N/A   Overcast
2:18 AM 69.8 °F - 64.4 °F 83% 29.81 in 8.0 mi SSE 21.9 mph 29.9 mph N/A   Overcast
2:42 AM 69.8 °F - 64.4 °F 83% 29.80 in 8.0 mi SSE 18.4 mph - N/A   Overcast
2:51 AM 70.0 °F - 64.0 °F 81% 29.78 in 8.0 mi SSE 18.4 mph - N/A   Overcast
3:51 AM 70.0 °F - 64.0 °F 81% 29.76 in 9.0 mi South 19.6 mph 26.5 mph N/A   Overcast
4:51 AM 70.0 °F - 64.0 °F 81% 29.74 in 8.0 mi South 24.2 mph 29.9 mph N/A   Overcast
5:26 AM 69.8 °F - 64.4 °F 83% 29.75 in 7.0 mi South 21.9 mph 29.9 mph N/A   Mostly Cloudy
5:51 AM 69.1 °F - 64.0 °F 84% 29.73 in 7.0 mi South 21.9 mph 28.8 mph N/A   Scattered Clouds
6:06 AM 69.8 °F - 64.4 °F 83% 29.75 in 7.0 mi South 20.7 mph 28.8 mph N/A   Mostly Cloudy
6:51 AM 69.8 °F - 64.4 °F 83% 29.75 in 8.0 mi South 19.6 mph 29.9 mph N/A   Mostly Cloudy
7:21 AM 69.8 °F - 64.4 °F 83% 29.73 in 8.0 mi South 24.2 mph 29.9 mph N/A   Scattered Clouds
7:39 AM 69.8 °F - 64.4 °F 83% 29.73 in 8.0 mi South 23.0 mph 29.9 mph N/A   Mostly Cloudy
7:51 AM 70.0 °F - 64.0 °F 81% 29.71 in 8.0 mi South 25.3 mph 32.2 mph N/A   Mostly Cloudy
8:51 AM 71.1 °F - 64.0 °F 78% 29.68 in 9.0 mi South 24.2 mph 33.4 mph N/A   Mostly Cloudy
9:51 AM 71.1 °F - 64.0 °F 78% 29.67 in 9.0 mi South 23.0 mph 33.4 mph N/A   Overcast
10:51 AM 73.0 °F - 64.0 °F 73% 29.66 in 9.0 mi South 25.3 mph 34.5 mph N/A   Overcast
11:51 AM 73.0 °F - 63.0 °F 71% 29.62 in 9.0 mi South 26.5 mph 36.8 mph N/A   Partly Cloudy
12:51 PM 78.1 °F - 63.0 °F 60% 29.55 in 9.0 mi South 26.5 mph 36.8 mph N/A   Partly Cloudy
1:51 PM 79.0 °F - 62.1 °F 56% 29.50 in 9.0 mi South 27.6 mph 36.8 mph N/A   Partly Cloudy
2:51 PM 80.6 °F 81.5 °F 60.8 °F 51% 29.49 in 9.0 mi South 23.0 mph 38.0 mph N/A   Partly Cloudy
3:51 PM 81.0 °F 81.6 °F 60.1 °F 49% 29.47 in 9.0 mi South 21.9 mph 32.2 mph N/A   Clear
4:26 PM 71.6 °F - 46.4 °F 41% 29.54 in 10.0 mi WNW 31.1 mph 46.0 mph N/A   Mostly Cloudy
4:36 PM 66.2 °F - 48.2 °F 52% 29.55 in 6.0 mi WNW 28.8 mph 40.3 mph 0.00 in Rain Light Rain
4:51 PM 61.0 °F - 53.1 °F 75% 29.54 in 2.5 mi NW 17.3 mph 29.9 mph 0.02 in Rain Rain
5:22 PM 62.6 °F - 53.6 °F 72% 29.58 in 9.0 mi WNW 20.7 mph 26.5 mph 0.02 in Rain Light Rain
5:51 PM 61.0 °F - 48.9 °F 64% 29.57 in 10.0 mi WNW 24.2 mph 40.3 mph 0.03 in   Mostly Cloudy
6:51 PM 57.0 °F - 45.0 °F 64% 29.62 in 10.0 mi WNW 11.5 mph - 0.00 in   Mostly Cloudy
7:51 PM 57.0 °F - 46.0 °F 67% 29.66 in 10.0 mi Calm Calm - N/A   Overcast
8:51 PM 57.9 °F - 39.9 °F 51% 29.70 in 10.0 mi WSW 4.6 mph - N/A   Mostly Cloudy
9:51 PM 57.9 °F - 33.1 °F 39% 29.73 in 10.0 mi West 10.4 mph - N/A   Partly Cloudy
10:51 PM 53.1 °F - 30.0 °F 41% 29.76 in 10.0 mi West 8.1 mph - N/A   Clear
11:51 PM 50.0 °F - 30.0 °F 46% 29.77 in 10.0 mi West 5.8 mph - N/A   Clear